This is the latest recevied weather packets stored in our database for station/object N3EG. If no packets are shown the sender has not sent any weather packets the latest 10 day(s).
| Time | Temp. | Humidity | Pressure | Rain* | Wind** | Luminosity | Snow |
|---|---|---|---|---|---|---|---|
| 1777482603 | 13.89° C | 73% | 1024.8 hPa | 0 mm | - | - | - |
| 1777482303 | 13.89° C | 73% | 1025 hPa | 0 mm | - | - | - |
| 1777482002 | 13.89° C | 72% | 1025 hPa | 0 mm | - | - | - |
| 1777481703 | 13.89° C | 74% | 1024.9 hPa | 0 mm | - | - | - |
| 1777481403 | 13.33° C | 71% | 1024.9 hPa | 0 mm | - | - | - |
| 1777481102 | 13.33° C | 74% | 1025.1 hPa | 0 mm | - | - | - |
| 1777480803 | 13.33° C | 73% | 1025.1 hPa | 0 mm | - | - | - |
| 1777480503 | 12.78° C | 73% | 1025.2 hPa | 0 mm | - | - | - |
| 1777480203 | 12.78° C | 75% | 1025.2 hPa | 0 mm | - | - | - |
| 1777479903 | 12.78° C | 74% | 1025.3 hPa | 0 mm | - | - | - |
| 1777479602 | 12.78° C | 76% | 1025.4 hPa | 0 mm | - | - | - |
| 1777479303 | 12.22° C | 76% | 1025.5 hPa | 0 mm | - | - | - |
| 1777479003 | 12.22° C | 76% | 1025.5 hPa | 0 mm | - | - | - |
| 1777478702 | 12.22° C | 77% | 1025.6 hPa | 0 mm | - | - | - |
| 1777478403 | 11.67° C | 80% | 1025.7 hPa | 0 mm | - | - | - |
| 1777478103 | 11.11° C | 79% | 1025.6 hPa | 0 mm | - | - | - |
| 1777477802 | 11.11° C | 80% | 1025.7 hPa | 0 mm | - | - | - |
| 1777477503 | 10.56° C | 83% | 1025.6 hPa | 0 mm | - | - | - |
| 1777477203 | 10° C | 84% | 1025.7 hPa | 0 mm | - | - | - |
| 1777476902 | 10° C | 85% | 1025.8 hPa | 0 mm | - | - | - |
| 1777476603 | 9.44° C | 85% | 1025.8 hPa | 0 mm | - | - | - |
| 1777476303 | 9.44° C | 85% | 1025.8 hPa | 0 mm | - | - | - |
| 1777476002 | 9.44° C | 86% | 1025.9 hPa | 0 mm | - | - | - |
| 1777475703 | 9.44° C | 87% | 1026 hPa | 0 mm | - | - | - |
| 1777475403 | 8.89° C | 88% | 1025.9 hPa | 0 mm | - | - | - |
* Rain latest hour (hover to see other rain measurements)
** Current wind speed in m/s (hover to see current wind gust speed)